Location: Spring Creek
(38.2870°N, 100.2160°W)
Time: 22:45:31
(UTC+00:00)

Envisat - Visible Passes

Search period start: 28 January 2022 00:00
Search period end: 07 February 2022 00:00
Orbit: 764 x 766 km, 98.2° (Epoch: 28 January)

Date Brightness Start Highest point End Pass type
(mag) Time Alt. Az. Time Alt. Az. Time Alt. Az.
28 Jan 3.0 11:28:59 10° NNE 11:34:05 78° ESE 11:39:09 10° S visible
28 Jan 4.7 13:10:26 10° NW 13:12:24 12° WNW 13:14:23 10° W visible
29 Jan 4.5 10:52:32 10° NNE 10:57:07 33° E 11:01:40 10° SSE visible
29 Jan 3.9 12:31:46 10° NNW 12:35:58 27° WNW 12:40:08 10° WSW visible
30 Jan 5.7 10:17:14 10° ENE 10:19:57 14° E 10:22:39 10° ESE visible
30 Jan 2.9 11:54:20 10° N 11:59:19 59° WNW 12:04:18 10° SSW visible
31 Jan 3.4 11:17:27 10° NNE 11:22:29 60° E 11:27:28 10° S visible
31 Jan 4.5 12:58:01 10° NNW 13:00:58 16° WNW 13:03:54 10° W visible
01 Feb 4.9 10:41:14 10° NE 10:45:27 26° E 10:49:39 10° SSE visible
01 Feb 3.6 12:19:56 10° N 12:24:28 34° WNW 12:28:59 10° SW visible
02 Feb 6.0 10:07:02 10° ENE 10:08:13 11° E 10:09:25 10° ESE visible
02 Feb 2.8 11:42:40 10° N 11:47:45 77° WNW 11:52:48 10° SSW visible
03 Feb 3.9 11:05:58 10° NNE 11:10:52 46° E 11:15:43 10° S visible
03 Feb 4.2 12:45:54 10° NNW 12:49:30 20° WNW 12:53:05 10° WSW visible
04 Feb 5.3 10:30:03 10° NE 10:33:46 20° E 10:37:27 10° SE visible
04 Feb 3.3 12:08:08 10° N 12:12:55 43° WNW 12:17:42 10° SW visible
05 Feb 2.9 11:31:04 10° NNE 11:36:10 83° ESE 11:41:15 10° SSW visible
05 Feb 4.8 13:12:52 10° NW 13:14:25 11° WNW 13:16:00 10° W visible
06 Feb 4.4 10:54:33 10° NNE 10:59:13 36° E 11:03:50 10° SSE visible
06 Feb 4.0 12:33:55 10° NNW 12:38:01 25° WNW 12:42:04 10° WSW visible
